Location: Carrières
(48.9495°N, 2.0407°E)
Time: 21:15:32
(UTC+00:00)

Transit 2A - Pass Details

Date: 20 April 2024
Orbit: 594 x 957 km, 66.7° (Epoch: 18 May)

Event Time Altitude Azimuth Distance (km) Brightness Sun altitude
Rises 04:49:34 0° 153° (SSE) 2,839 9.1 -1.0°
Reaches altitude 10° 04:53:56 10° 111° (ESE) 1,993 9.1 -0.3°
Maximum altitude 04:54:34 10° 103° (ESE) 1,985 9.3 -0.2°
Drops below altitude 10° 04:55:12 10° 94° (E) 2,014 9.6 -0.1°
Sets 04:59:48 0° 53° (NE) 3,020 10.8 0.6°
